sat.trackr.live / text

‹ back to catalog

STARLINK-34995

NORAD 65285 · 2025-184N

PAYLOAD ACTIVE UNKNOWN

§ Identity

Operator
Country
US
Launch date
2025-08-22
Launch site
AFWTR
Launch vehicle
Mass (kg)
RCS (m²)

Purposes: comms

External: N2YO · Heavens-Above · Gunter

§ Orbital elements

Epoch: 2026-05-25T03:31:57.241920Z

Period
95.64 min
Inclination
97.4473°
Eccentricity
0.0002432
Mean motion
15.05659844 rev/d
Perigee alt
547.8 km
Apogee alt
551.2 km
Semi-major
6,927.6 km
B*
2.3823e-4
RAAN
197.6297°
Arg perigee
115.0831°
Mean anomaly
245.0649°
Rev number
4,280

§ Raw data

STARLINK-349951 65285U 25184N   26145.14719030  .00003381  00000+0  23823-3 0  99942 65285  97.4473 197.6297 0002432 115.0831 245.0649 15.05659844 42804

JSON: /api/v1/satellites/65285 · /tle

For live sub-satellite position, see the globe view (requires WebGL).

§ Visibility from observer

Set your observer location to see the next 7 days of passes ≥ 10°. The values pass through the URL so the page stays shareable.

No JS? Fill the form by hand. The geolocation button needs JavaScript.